| time (UTC) | temp F | wind direction | speed MPH | gust MPH | rain 1hr in | rain 24hr in | rain mn in | humidity % | barometer mb |
| 20260903043105 | 64 | 0 | 0.0 | 0.0 | 0.00 | 0.01 | 0.00 | 84 | 1019.8 |
| 20260903041552 | 64 | 0 | 0.0 | 0.0 | 0.00 | 0.01 | 0.00 | 84 | 1019.9 |
| 20260903040051 | 63 | 0 | 0.0 | 1.0 | 0.00 | 0.01 | 0.00 | 84 | 1019.9 |
| 20260903034558 | 63 | 0 | 0.0 | 1.0 | 0.00 | 0.01 | 0.01 | 84 | 1020.0 |
| 20260903033055 | 63 | 0 | 0.0 | 0.0 | 0.00 | 0.01 | 0.01 | 84 | 1020.4 |
| 20260903031554 | 63 | 0 | 0.0 | 0.0 | 0.00 | 0.01 | 0.01 | 84 | 1020.3 |
| 20260903030104 | 63 | 0 | 0.0 | 1.0 | 0.00 | 0.01 | 0.01 | 84 | 1020.5 |
| 20260903024558 | 63 | 0 | 0.0 | 1.0 | 0.00 | 0.01 | 0.01 | 84 | 1020.4 |
| 20260903023054 | 63 | 0 | 0.0 | 0.0 | 0.00 | 0.01 | 0.01 | 84 | 1020.5 |
| 20260903021552 | 63 | 0 | 0.0 | 1.0 | 0.00 | 0.01 | 0.01 | 84 | 1020.6 |
| 20260903020058 | 63 | 0 | 0.0 | 1.0 | 0.00 | 0.01 | 0.01 | 84 | 1020.8 |
| 20260903014600 | 63 | 0 | 0.0 | 1.0 | 0.00 | 0.01 | 0.01 | 85 | 1020.8 |
| 20260903013056 | 63 | 0 | 0.0 | 1.0 | 0.00 | 0.01 | 0.01 | 85 | 1020.4 |
| 20260903011557 | 63 | 0 | 0.0 | 0.0 | 0.00 | 0.01 | 0.01 | 85 | 1020.7 |
| 20260903010100 | 63 | 0 | 0.0 | 1.0 | 0.00 | 0.01 | 0.01 | 85 | 1020.6 |
| 20260903004613 | 64 | 0 | 0.0 | 1.0 | 0.00 | 0.01 | 0.01 | 85 | 1020.7 |
| 20260903003055 | 64 | 0 | 0.0 | 1.0 | 0.00 | 0.01 | 0.01 | 85 | 1020.8 |
| 20260903001551 | 64 | 0 | 0.0 | 1.0 | 0.00 | 0.01 | 0.01 | 85 | 1021.0 |
| 20260903000053 | 64 | 0 | 0.0 | 1.0 | 0.00 | 0.01 | 0.01 | 85 | 1021.1 |
| 20260902234558 | 64 | 181 | 0.0 | 1.0 | 0.00 | 0.01 | 0.01 | 85 | 1021.1 |
| 20260902233103 | 65 | 0 | 0.0 | 0.0 | 0.00 | 0.01 | 0.01 | 85 | 1021.5 |
| 20260902231552 | 66 | 0 | 0.0 | 1.0 | 0.00 | 0.01 | 0.01 | 85 | 1021.5 |
| 20260902230055 | 66 | 0 | 0.0 | 1.0 | 0.00 | 0.01 | 0.01 | 85 | 1021.8 |
| 20260902224558 | 67 | 0 | 0.0 | 2.0 | 0.00 | 0.01 | 0.01 | 84 | 1021.6 |
| 20260902223114 | 67 | 0 | 0.0 | 2.0 | 0.00 | 0.01 | 0.01 | 84 | 1021.7 |
| 20260902221553 | 67 | 181 | 0.0 | 2.0 | 0.00 | 0.01 | 0.01 | 84 | 1021.9 |
| 20260902220101 | 68 | 181 | 0.0 | 2.0 | 0.00 | 0.01 | 0.01 | 83 | 1021.8 |
| 20260902214553 | 68 | 0 | 0.0 | 2.0 | 0.00 | 0.01 | 0.01 | 82 | 1021.8 |
| 20260902213051 | 69 | 0 | 0.0 | 2.0 | 0.00 | 0.01 | 0.01 | 82 | 1021.8 |
| 20260902211544 | 69 | 181 | 0.0 | 2.0 | 0.00 | 0.01 | 0.01 | 82 | 1021.5 |
| 20260902210053 | 69 | 182 | 1.0 | 3.0 | 0.00 | 0.01 | 0.01 | 81 | 1021.8 |
| 20260902204630 | 70 | 0 | 1.0 | 3.0 | 0.00 | 0.01 | 0.01 | 81 | 1021.8 |
| 20260902203051 | 69 | 182 | 0.0 | 2.0 | 0.00 | 0.01 | 0.01 | 81 | 1021.9 |
| 20260902201548 | 69 | 182 | 0.0 | 2.0 | 0.00 | 0.01 | 0.01 | 81 | 1022.3 |
| 20260902200058 | 70 | 182 | 0.0 | 3.0 | 0.00 | 0.01 | 0.01 | 81 | 1022.3 |
| 20260902194554 | 69 | 174 | 0.0 | 2.0 | 0.00 | 0.01 | 0.01 | 81 | 1022.3 |
| 20260902193050 | 69 | 174 | 0.0 | 2.0 | 0.00 | 0.01 | 0.01 | 81 | 1022.7 |
| 20260902191548 | 69 | 174 | 0.0 | 3.0 | 0.00 | 0.01 | 0.01 | 80 | 1022.8 |
| 20260902190058 | 69 | 261 | 1.0 | 4.0 | 0.00 | 0.01 | 0.01 | 81 | 1022.5 |
| 20260902184555 | 69 | 0 | 0.0 | 3.0 | 0.00 | 0.01 | 0.01 | 81 | 1022.5 |
| 20260902183105 | 69 | 205 | 0.0 | 2.0 | 0.00 | 0.01 | 0.01 | 82 | 1022.3 |
| 20260902181554 | 68 | 205 | 0.0 | 2.0 | 0.00 | 0.01 | 0.01 | 83 | 1022.6 |
| 20260902180048 | 68 | 205 | 0.0 | 2.0 | 0.00 | 0.01 | 0.01 | 83 | 1022.8 |
| 20260902174552 | 68 | 0 | 0.0 | 2.0 | 0.00 | 0.02 | 0.01 | 83 | 1022.8 |
| 20260902173104 | 68 | 205 | 0.0 | 2.0 | 0.00 | 0.02 | 0.01 | 82 | 1022.9 |
| 20260902171555 | 69 | 175 | 0.0 | 2.0 | 0.00 | 0.02 | 0.01 | 83 | 1022.8 |
| 20260902170053 | 69 | 178 | 0.0 | 2.0 | 0.00 | 0.02 | 0.01 | 83 | 1022.9 |
| 20260902164603 | 69 | 0 | 0.0 | 2.0 | 0.00 | 0.02 | 0.01 | 83 | 1022.8 |
| 20260902163054 | 69 | 0 | 0.0 | 2.0 | 0.00 | 0.02 | 0.01 | 83 | 1023.0 |
| 20260902161553 | 69 | 0 | 0.0 | 2.0 | 0.00 | 0.02 | 0.01 | 83 | 1023.1 |
| 20260902160048 | 69 | 178 | 0.0 | 2.0 | 0.00 | 0.02 | 0.01 | 84 | 1023.2 |
| 20260902154553 | 68 | 178 | 0.0 | 2.0 | 0.00 | 0.03 | 0.01 | 84 | 1023.4 |
| 20260902153107 | 68 | 177 | 0.0 | 2.0 | 0.00 | 0.03 | 0.01 | 85 | 1023.4 |
| 20260902151555 | 68 | 177 | 0.0 | 2.0 | 0.00 | 0.03 | 0.01 | 85 | 1023.6 |
| 20260902150052 | 67 | 177 | 0.0 | 2.0 | 0.00 | 0.03 | 0.01 | 85 | 1023.6 |
| 20260902144600 | 67 | 0 | 0.0 | 3.0 | 0.01 | 0.07 | 0.01 | 85 | 1023.2 |
| 20260902143059 | 67 | 177 | 0.0 | 2.0 | 0.01 | 0.07 | 0.01 | 85 | 1023.0 |
| 20260902141557 | 66 | 0 | 0.0 | 2.0 | 0.01 | 0.07 | 0.01 | 83 | 1023.0 |
| 20260902140054 | 66 | 177 | 0.0 | 1.0 | 0.01 | 0.07 | 0.01 | 82 | 1022.8 |
| 20260902134556 | 65 | 0 | 0.0 | 2.0 | 0.00 | 0.23 | 0.00 | 80 | 1022.8 |
| 20260902133050 | 65 | 177 | 0.0 | 1.0 | 0.00 | 0.23 | 0.00 | 79 | 1022.8 |
| 20260902131555 | 64 | 0 | 0.0 | 1.0 | 0.00 | 0.23 | 0.00 | 79 | 1022.8 |
| 20260902130058 | 64 | 0 | 0.0 | 1.0 | 0.00 | 0.23 | 0.00 | 78 | 1022.9 |
| 20260902124550 | 64 | 177 | 0.0 | 1.0 | 0.00 | 0.35 | 0.00 | 78 | 1023.0 |
| 20260902123057 | 63 | 0 | 0.0 | 1.0 | 0.00 | 0.35 | 0.00 | 78 | 1023.0 |
| 20260902121554 | 63 | 0 | 0.0 | 1.0 | 0.00 | 0.35 | 0.00 | 78 | 1023.1 |
| 20260902120052 | 63 | 0 | 0.0 | 1.0 | 0.00 | 0.35 | 0.00 | 78 | 1023.1 |
| 20260902114550 | 63 | 0 | 0.0 | 1.0 | 0.00 | 0.35 | 0.00 | 78 | 1023.1 |
| 20260902113049 | 63 | 0 | 0.0 | 1.0 | 0.00 | 0.35 | 0.00 | 78 | 1023.0 |
| 20260902111546 | 63 | 0 | 0.0 | 2.0 | 0.00 | 0.35 | 0.00 | 78 | 1022.8 |
| 20260902110059 | 63 | 0 | 0.0 | 1.0 | 0.00 | 0.35 | 0.00 | 78 | 1022.7 |
| 20260902104602 | 62 | 0 | 0.0 | 1.0 | 0.00 | 0.35 | 0.00 | 78 | 1022.3 |
| 20260902103105 | 62 | 0 | 0.0 | 1.0 | 0.00 | 0.35 | 0.00 | 78 | 1022.2 |
| 20260902101603 | 62 | 0 | 0.0 | 1.0 | 0.00 | 0.35 | 0.00 | 78 | 1022.3 |
| 20260902100059 | 62 | 0 | 0.0 | 0.0 | 0.00 | 0.35 | 0.00 | 78 | 1022.0 |
| 20260902094549 | 62 | 0 | 0.0 | 0.0 | 0.00 | 0.35 | 0.00 | 78 | 1022.0 |
| 20260902093053 | 62 | 0 | 0.0 | 0.0 | 0.00 | 0.35 | 0.00 | 79 | 1021.9 |
| 20260902091603 | 62 | 0 | 0.0 | 0.0 | 0.00 | 0.35 | 0.00 | 79 | 1021.6 |
| 20260902090100 | 62 | 0 | 0.0 | 0.0 | 0.00 | 0.35 | 0.00 | 79 | 1021.7 |
| 20260902084557 | 62 | 0 | 0.0 | 0.0 | 0.00 | 0.35 | 0.00 | 78 | 1021.3 |
| 20260902083056 | 62 | 0 | 0.0 | 0.0 | 0.00 | 0.35 | 0.00 | 79 | 1021.6 |
| 20260902081552 | 62 | 0 | 0.0 | 0.0 | 0.00 | 0.35 | 0.00 | 79 | 1022.0 |
| 20260902080052 | 62 | 0 | 0.0 | 0.0 | 0.00 | 0.35 | 0.00 | 79 | 1021.9 |
| 20260902074559 | 62 | 0 | 0.0 | 0.0 | 0.00 | 0.35 | 0.00 | 79 | 1021.9 |
| 20260902073054 | 62 | 0 | 0.0 | 0.0 | 0.00 | 0.35 | 0.00 | 79 | 1021.8 |
| 20260902071555 | 62 | 0 | 0.0 | 0.0 | 0.00 | 0.35 | 0.00 | 79 | 1021.7 |
| 20260902070054 | 62 | 0 | 0.0 | 0.0 | 0.00 | 0.35 | 0.00 | 79 | 1021.4 |
| 20260902064604 | 62 | 0 | 0.0 | 0.0 | 0.00 | 0.35 | 0.00 | 79 | 1021.6 |
| 20260902063109 | 62 | 0 | 0.0 | 0.0 | 0.00 | 0.35 | 0.00 | 79 | 1021.5 |
| 20260902061616 | 62 | 0 | 0.0 | 0.0 | 0.00 | 0.35 | 0.00 | 79 | 1021.6 |
| 20260902060054 | 62 | 0 | 0.0 | 0.0 | 0.00 | 0.35 | 0.00 | 79 | 1021.5 |
| 20260902054554 | 62 | 0 | 0.0 | 0.0 | 0.00 | 0.35 | 0.00 | 79 | 1021.5 |
| 20260902053105 | 62 | 0 | 0.0 | 0.0 | 0.00 | 0.35 | 0.00 | 79 | 1021.5 |
| 20260902051615 | 61 | 0 | 0.0 | 0.0 | 0.00 | 0.35 | 0.00 | 79 | 1021.3 |
| 20260902050054 | 62 | 0 | 0.0 | 0.0 | 0.00 | 0.35 | 0.00 | 79 | 1021.1 |
| 20260902044631 | 62 | 0 | 0.0 | 0.0 | 0.00 | 0.35 | 0.00 | 79 | 1020.8 |